Regional Weather Roundup
Issued by NWS

Home | Current Version | Previous Version | Graphics & Text | Print | Product List | Glossary On
Versions: 1 2 3 4 5 6 7 8 9 10 11 12 13 14 15 16 17 18 19 20 21 22 23 24 25 26 27 28 29 30 31 32 33 34 35 36 37 38 39 40 41 42 43 44 45 46 47 48 49 50
000
ASUS43 KOAX 092010
RWRNE

WEATHER ROUNDUP FOR NEBRASKA
NATIONAL WEATHER SERVICE OMAHA NE
300 PM CDT WED JUL 09 2014

NOTES: SATELLITE DATA IS BEING USED TO AUGMENT CLOUD COVER ABOVE
       12000 FEET.
       "FAIR" INDICATES FEW OR NO CLOUDS BELOW 12,000 FEET WITH NO
       SIGNIFICANT WEATHER AND/OR OBSTRUCTIONS TO VISIBILITY.

  * THESE STATIONS DO NOT REPORT WEATHER SUCH AS RAIN...SNOW OR FOG.

NEZ001>004-019>022-054>056-092100-
NEBRASKA PANHANDLE

CITY           SKY/WX    TMP DP  RH WIND       PRES   REMARKS
SCOTTSBLUFF    SUNNY     88  59  37 SE7       29.99F
ALLIANCE       MOSUNNY   88  54  31 VRB3      29.99F
KIMBALL        SUNNY     89  49  25 S16G23    30.03F
$$

NEZ057>060-069>072-079>082-092100-
SOUTHWEST NEBRASKA

CITY           SKY/WX    TMP DP  RH WIND       PRES   REMARKS
NORTH PLATTE   MOSUNNY   84  58  40 S16G24    29.96F
IMPERIAL       MOSUNNY   90  59  35 S15G26    29.97F
LEXINGTON      PTSUNNY   88  59  37 S20       29.99F
OGALLALA       MOSUNNY   86  61  42 SW13      29.97F
$$

NEZ005>010-023>029-035>040-094-092100-
NORTH CENTRAL NEBRASKA

CITY           SKY/WX    TMP DP  RH WIND       PRES   REMARKS
VALENTINE      CLOUDY    71  58  63 E17       30.04S
AINSWORTH      RAIN      62  58  86 E13       30.05R
BROKEN BOW     PTSUNNY   79  61  53 SE17G24   29.99F
O`NEILL        CLOUDY    69  58  70 S3        30.06F
ORD            CLOUDY    72  60  66 SE14      29.99F
THEDFORD       MOSUNNY   78  62  57 SE20      29.99F
$$

NEZ041-046>049-061>064-073>077-083>087-092100-
SOUTH CENTRAL NEBRASKA

CITY           SKY/WX    TMP DP  RH WIND       PRES   REMARKS
GRAND ISLAND   CLOUDY    79  58  48 SE10      30.05F
AURORA         CLOUDY    78  63  60 E6        30.07S
HASTINGS       CLOUDY    83  56  39 S9        30.04F
HEBRON         MOSUNNY   85  57  37 SW6       30.04F
HOLDREGE       CLOUDY    84  54  34 S14       30.02F
KEARNEY *      CLOUDY    84  61  45 S20       30.00F
YORK           LGT RAIN  77  59  53 CALM      30.09R
$$

NEZ011>018-030>034-042>045-092100-
NORTHEAST NEBRASKA

CITY           SKY/WX    TMP DP  RH WIND       PRES   REMARKS
NORFOLK        PTSUNNY   80  57  45 SW9       30.05F
ALBION         CLOUDY    69  57  67 S5        30.05F
BLAIR          MOSUNNY   80  56  43 SW5       30.06S
FREMONT        MOSUNNY   83  54  37 SW6       30.06S
TEKAMAH        MOSUNNY   83  60  45 SW8       30.04S
WAYNE          PTSUNNY   83  59  43 SW10      30.04F
$$

NEZ050>053-065>068-078-088>093-092100-
SOUTHEAST NEBRASKA

CITY           SKY/WX    TMP DP  RH WIND       PRES   REMARKS
LINCOLN        MOSUNNY   85  58  39 S9        30.06S
OMAHA EPPLEY   MOSUNNY   83  56  39 W8        30.05S
BEATRICE       PTSUNNY   80  56  43 CALM      30.06S
FALLS CITY     SUNNY     84  54  35 CALM      30.05F
NEBRASKA CITY  MOSUNNY   80  57  44 S6        30.06F
PLATTSMOUTH    SUNNY     82  56  41 CALM      30.06S
$$

NEZ044-045-051>053-067-092100-
OMAHA AREA

CITY           SKY/WX    TMP DP  RH WIND       PRES   REMARKS
OMAHA EPPLEY   MOSUNNY   83  56  39 W8        30.05S
BLAIR          MOSUNNY   80  56  43 SW5       30.06S
FREMONT        MOSUNNY   83  54  37 SW6       30.06S
MILLARD        MOSUNNY   81  57  43 CALM      30.05S
OFFUTT AFB     SUNNY     82  61  49 S6        30.05F
PLATTSMOUTH    SUNNY     82  56  41 CALM      30.06S
WAHOO          MOCLDY    82  52  36 S3        30.06S
$$


USA.gov is the U.S. government's official web portal to all federal, state and local government web resources and services.